Location: ????????
(55.3939°N, 37.4780°E)
Time: 19:57:07
(UTC+00:00)

NOSS 3-1 (C) - Pass Details

Date: 14 April 2026
Orbit: 618 x 1583 km, 63.4° (Epoch: 10 January)

Event Time Altitude Azimuth Distance (km) Brightness Sun altitude
Rises 20:01:22 0° 309° (NW) 3,614 7.5 -22.4°
Reaches altitude 10° 20:03:41 10° 307° (NW) 2,790 6.7 -22.5°
Maximum altitude 20:10:19 66° 227° (SW) 1,290 3.9 -22.8°
Enters shadow 20:13:20 40° 161° (SSE) 1,791 4.3 -23.0°
